sat.trackr.live / text

‹ back to catalog

COSMOS 2390

NORAD 27464 · 2002-036A

PAYLOAD ACTIVE UNKNOWN

§ Identity

Operator
Country
CIS
Launch date
2002-07-08
Launch site
PLMSC
Launch vehicle
Mass (kg)
RCS (m²)
0.88

External: N2YO · Heavens-Above · Gunter

§ Orbital elements

Epoch: 2026-09-19T23:25:48.125280Z

Period
115.70 min
Inclination
82.4803°
Eccentricity
0.0026478
Mean motion
12.44624880 rev/d
Perigee alt
1,466.2 km
Apogee alt
1,507.9 km
Semi-major
7,865.2 km
B*
-1.2725e-4
RAAN
285.6853°
Arg perigee
52.8814°
Mean anomaly
307.4681°
Rev number
9,946

§ Raw data

COSMOS 23901 27464U 02036A   26262.97625145 -.00000008  00000+0 -12725-3 0  99902 27464  82.4803 285.6853 0026478  52.8814 307.4681 12.44624880 99468

JSON: /api/v1/satellites/27464 · /tle

For live sub-satellite position, see the globe view (requires WebGL).

§ Visibility from observer

Set your observer location to see the next 7 days of passes ≥ 10°. The values pass through the URL so the page stays shareable.

No JS? Fill the form by hand. The geolocation button needs JavaScript.